Location: Unspecified
(29.9680°N, 0.0000°E)
Time: 08:55:25
(UTC+00:00)

Explorer 7 - Pass Details

Date: 01 July 2019
Orbit: 485 x 680 km, 50.3° (Epoch: 24 August)

Event Time Altitude Azimuth Distance (km) Brightness Sun altitude
Rises 11:08:24 0° 325° (NW) 2,879 10.4 75.8°
Reaches altitude 10° 11:10:57 10° 337° (NNW) 2,005 9.7 76.3°
Maximum altitude 11:14:54 27° 36° (NE) 1,241 9.1 77.1°
Drops below altitude 10° 11:19:00 10° 94° (E) 2,080 10.1 77.9°
Sets 11:21:41 0° 106° (ESE) 3,008 10.7 78.3°
